Radiation Dose at Monitoring Post of Fukushima Daini Nuclear Power Station
Date,Time,MP-1(microSv/h),MP-2(microSv/h),MP-3(microSv/h),MP-4(microSv/h),MP-5(microSv/h),MP-6(microSv/h),MP-7(microSv/h),Wind Direction,Wind Velocity(m/s),Rain
2019/10/03,00:00,0.192,0.169,0.290,0.271,0.267,0.146,0.091,south,5.6,No
2019/10/03,00:10,0.193,0.169,0.287,0.273,0.271,0.148,0.091,south,5.6,No
2019/10/03,00:20,0.191,0.169,0.291,0.272,0.268,0.148,0.091,south,5.9,No
2019/10/03,00:30,0.194,0.168,0.288,0.273,0.271,0.148,0.092,south,6.1,No
2019/10/03,00:40,0.191,0.169,0.290,0.271,0.268,0.146,0.091,south,5.8,No
2019/10/03,00:50,0.194,0.168,0.289,0.272,0.271,0.148,0.092,south,6.3,No
2019/10/03,01:00,0.192,0.168,0.290,0.272,0.268,0.147,0.091,south,5.3,No
2019/10/03,01:10,0.193,0.167,0.287,0.273,0.272,0.148,0.092,south,5.1,No
2019/10/03,01:20,0.193,0.169,0.290,0.272,0.268,0.148,0.091,south,4.8,No
2019/10/03,01:30,0.193,0.169,0.288,0.270,0.271,0.148,0.092,south,4.6,No
2019/10/03,01:40,0.192,0.169,0.291,0.272,0.269,0.146,0.091,south,5.1,No
2019/10/03,01:50,0.192,0.168,0.288,0.273,0.270,0.148,0.091,south,5.8,No
2019/10/03,02:00,0.193,0.167,0.289,0.271,0.268,0.147,0.091,south,6.0,No
2019/10/03,02:10,0.192,0.168,0.289,0.273,0.270,0.148,0.091,south,5.2,No
2019/10/03,02:20,0.192,0.168,0.290,0.271,0.269,0.146,0.091,south,5.4,No
2019/10/03,02:30,0.192,0.168,0.286,0.273,0.269,0.148,0.090,south,4.4,No
2019/10/03,02:40,0.192,0.168,0.290,0.271,0.268,0.146,0.090,south,4.6,No
2019/10/03,02:50,0.192,0.168,0.288,0.272,0.269,0.147,0.090,south,4.4,No
2019/10/03,03:00,0.193,0.168,0.290,0.270,0.268,0.146,0.091,south-southwest,3.4,No
2019/10/03,03:10,0.192,0.169,0.288,0.272,0.268,0.147,0.090,south-southwest,3.0,No
2019/10/03,03:20,0.193,0.167,0.289,0.270,0.269,0.147,0.091,south-southwest,2.6,No
2019/10/03,03:30,0.192,0.168,0.287,0.272,0.268,0.147,0.090,south-southwest,2.4,No
2019/10/03,03:40,0.192,0.167,0.290,0.270,0.269,0.147,0.091,south-southwest,2.9,No
2019/10/03,03:50,0.191,0.169,0.287,0.273,0.268,0.147,0.091,south-southwest,2.5,No
2019/10/03,04:00,0.193,0.169,0.288,0.270,0.271,0.147,0.090,south,1.6,No
2019/10/03,04:10,0.191,0.168,0.287,0.272,0.268,0.148,0.091,south,2.5,No
2019/10/03,04:20,0.192,0.168,0.289,0.271,0.269,0.147,0.090,south-southwest,3.1,No
2019/10/03,04:30,0.191,0.168,0.288,0.272,0.266,0.147,0.091,south,3.3,No
2019/10/03,04:40,0.193,0.167,0.289,0.270,0.269,0.147,0.091,south,3.0,No
2019/10/03,04:50,0.191,0.167,0.287,0.271,0.268,0.147,0.091,south,3.9,No
2019/10/03,05:00,0.192,0.167,0.288,0.270,0.271,0.147,0.091,south,3.8,No
2019/10/03,05:10,0.192,0.168,0.287,0.271,0.267,0.147,0.090,south,3.5,No
2019/10/03,05:20,0.192,0.169,0.288,0.270,0.270,0.147,0.091,south-southwest,3.2,No
2019/10/03,05:30,0.192,0.167,0.287,0.271,0.267,0.146,0.090,south,2.9,No
2019/10/03,05:40,0.192,0.168,0.288,0.270,0.269,0.147,0.091,south,3.0,No
2019/10/03,05:50,0.191,0.168,0.288,0.272,0.268,0.147,0.090,south,3.2,No
2019/10/03,06:00,0.193,0.168,0.288,0.270,0.269,0.147,0.090,south,3.2,No
2019/10/03,06:10,0.191,0.169,0.287,0.271,0.267,0.146,0.091,south,5.2,No
2019/10/03,06:20,0.193,0.168,0.287,0.272,0.269,0.147,0.090,south-southwest,4.9,No
2019/10/03,06:30,0.191,0.168,0.288,0.271,0.267,0.147,0.090,south-southwest,4.9,No
2019/10/03,06:40,0.192,0.167,0.288,0.269,0.269,0.147,0.090,south-southwest,5.6,No
2019/10/03,06:50,0.190,0.167,0.289,0.271,0.268,0.146,0.090,south,5.8,No
2019/10/03,07:00,0.191,0.167,0.288,0.269,0.266,0.146,0.090,south,6.7,No
2019/10/03,07:10,0.191,0.166,0.287,0.271,0.269,0.145,0.090,south,6.3,No
2019/10/03,07:20,0.191,0.167,0.288,0.270,0.266,0.145,0.090,south-southwest,6.2,No
2019/10/03,07:30,0.193,0.167,0.287,0.270,0.268,0.147,0.090,south,6.5,No
2019/10/03,07:40,0.191,0.168,0.288,0.270,0.268,0.146,0.089,south,5.7,No
2019/10/03,07:50,0.192,0.166,0.285,0.267,0.264,0.146,0.090,south,6.0,No
2019/10/03,08:00,0.191,0.167,0.286,0.271,0.269,0.146,0.089,south,5.1,No
2019/10/03,08:10,0.190,0.167,0.286,0.268,0.266,0.144,0.089,south,5.8,No
2019/10/03,08:20,0.191,0.166,0.284,0.268,0.265,0.145,0.089,south,6.0,No
2019/10/03,08:30,0.190,0.166,0.287,0.269,0.267,0.145,0.090,south,6.1,No
2019/10/03,08:40,0.189,0.166,0.284,0.268,0.266,0.145,0.089,south,5.2,No
2019/10/03,08:50,0.190,0.166,0.285,0.267,0.263,0.145,0.089,south,6.1,No
2019/10/03,09:00,0.190,0.165,0.288,0.270,0.267,0.146,0.088,south-southeast,5.9,No
2019/10/03,09:10,0.189,0.167,0.285,0.271,0.269,0.144,0.088,south-southeast,6.1,No
2019/10/03,09:20,0.188,0.166,0.285,0.270,0.266,0.145,0.089,south-southeast,6.0,No
2019/10/03,09:30,0.188,0.165,0.288,0.267,0.265,0.144,0.089,south-southeast,5.8,No
2019/10/03,09:40,0.187,0.166,0.285,0.267,0.263,0.146,0.088,south-southeast,5.8,No
2019/10/03,09:50,0.189,0.165,0.283,0.267,0.264,0.146,0.089,south-southeast,6.5,No
2019/10/03,10:00,0.193,0.167,0.286,0.271,0.268,0.145,0.089,south-southeast,7.4,No
2019/10/03,10:10,0.191,0.167,0.285,0.272,0.269,0.145,0.090,south-southeast,6.3,No
2019/10/03,10:20,0.189,0.165,0.284,0.269,0.266,0.146,0.090,south-southeast,6.0,No
2019/10/03,10:30,0.189,0.166,0.287,0.267,0.264,0.146,0.089,south-southeast,5.9,No
2019/10/03,10:40,0.192,0.167,0.287,0.272,0.269,0.146,0.089,south-southeast,5.4,No
2019/10/03,10:50,0.191,0.166,0.285,0.270,0.268,0.146,0.090,south-southeast,5.9,No
2019/10/03,11:00,0.190,0.166,0.283,0.269,0.267,0.146,0.089,south-southeast,6.2,No
2019/10/03,11:10,0.190,0.166,0.287,0.268,0.264,0.146,0.089,southeast,5.7,No
2019/10/03,11:20,0.189,0.167,0.288,0.272,0.266,0.145,0.088,south-southeast,6.5,No
2019/10/03,11:30,0.191,0.166,0.285,0.271,0.269,0.145,0.089,south-southeast,6.0,No
2019/10/03,11:40,0.191,0.166,0.285,0.268,0.268,0.146,0.091,south-southeast,5.5,No
2019/10/03,11:50,0.191,0.166,0.288,0.271,0.264,0.146,0.091,south-southeast,5.5,No
2019/10/03,12:00,0.190,0.169,0.285,0.273,0.266,0.146,0.089,south-southeast,5.3,No
2019/10/03,12:10,0.191,0.167,0.285,0.270,0.270,0.145,0.089,south-southeast,5.8,No
2019/10/03,12:20,0.192,0.166,0.285,0.268,0.268,0.146,0.089,south-southeast,6.3,No
2019/10/03,12:30,0.191,0.166,0.289,0.268,0.267,0.146,0.089,south-southeast,7.0,No
2019/10/03,12:40,0.190,0.165,0.288,0.269,0.266,0.146,0.088,south-southeast,7.4,No
2019/10/03,12:50,0.189,0.165,0.286,0.272,0.265,0.146,0.090,south-southeast,6.2,No
2019/10/03,13:00,0.189,0.167,0.284,0.270,0.264,0.144,0.090,south-southeast,6.9,No
2019/10/03,13:10,0.189,0.167,0.287,0.268,0.266,0.145,0.090,south-southeast,4.7,No
2019/10/03,13:20,0.193,0.167,0.287,0.271,0.269,0.146,0.089,south-southeast,5.6,No
2019/10/03,13:30,0.192,0.165,0.285,0.272,0.268,0.146,0.090,south-southeast,5.8,Yes
2019/10/03,13:40,0.190,0.168,0.286,0.270,0.266,0.146,0.090,south-southeast,5.7,Yes
2019/10/03,13:50,0.192,0.168,0.288,0.269,0.270,0.146,0.090,south-southeast,5.5,No
2019/10/03,14:00,0.192,0.166,0.285,0.272,0.269,0.146,0.089,south-southeast,7.0,No
2019/10/03,14:10,0.191,0.166,0.288,0.271,0.266,0.146,0.089,south-southeast,6.6,No
2019/10/03,14:20,0.190,0.169,0.288,0.268,0.266,0.145,0.090,south,5.7,No
2019/10/03,14:30,0.192,0.167,0.286,0.272,0.270,0.146,0.089,south-southeast,5.6,No
2019/10/03,14:40,0.192,0.166,0.283,0.270,0.268,0.146,0.089,south-southeast,5.8,No
2019/10/03,14:50,0.189,0.167,0.287,0.269,0.265,0.145,0.089,south,6.7,No
2019/10/03,15:00,0.189,0.166,0.286,0.268,0.265,0.145,0.091,south-southeast,6.2,No
2019/10/03,15:10,0.192,0.166,0.286,0.272,0.270,0.146,0.089,south-southeast,6.6,No
2019/10/03,15:20,0.192,0.166,0.288,0.268,0.269,0.146,0.089,south-southeast,6.4,No
2019/10/03,15:30,0.190,0.167,0.288,0.269,0.266,0.145,0.090,south-southeast,5.7,No
2019/10/03,15:40,0.190,0.168,0.284,0.273,0.267,0.146,0.090,south-southeast,6.3,No
2019/10/03,15:50,0.191,0.167,0.286,0.270,0.271,0.146,0.090,south,5.4,No
2019/10/03,16:00,0.191,0.167,0.287,0.268,0.266,0.145,0.089,south,3.8,No
2019/10/03,16:10,0.189,0.167,0.286,0.271,0.266,0.146,0.090,south-southeast,6.0,No
2019/10/03,16:20,0.191,0.166,0.286,0.270,0.269,0.146,0.090,south,6.8,No
2019/10/03,16:30,0.192,0.167,0.289,0.269,0.268,0.147,0.088,south-southeast,7.0,No
2019/10/03,16:40,0.189,0.167,0.286,0.272,0.265,0.145,0.090,south-southeast,5.8,Yes
2019/10/03,16:50,0.191,0.167,0.286,0.271,0.271,0.146,0.090,south,6.3,Yes
2019/10/03,17:00,0.191,0.167,0.288,0.270,0.269,0.146,0.089,south-southeast,6.0,Yes
2019/10/03,17:10,0.191,0.167,0.286,0.272,0.265,0.146,0.090,south-southeast,6.0,Yes
2019/10/03,17:20,0.190,0.166,0.288,0.270,0.270,0.146,0.090,south,6.4,No
2019/10/03,17:30,0.192,0.167,0.288,0.269,0.269,0.146,0.089,south-southeast,6.9,No
2019/10/03,17:40,0.190,0.168,0.286,0.272,0.266,0.144,0.089,south-southeast,6.3,No
2019/10/03,17:50,0.191,0.167,0.288,0.272,0.269,0.146,0.089,south,7.0,No
2019/10/03,18:00,0.191,0.167,0.288,0.269,0.268,0.146,0.089,south-southeast,6.5,No
2019/10/03,18:10,0.190,0.167,0.286,0.271,0.266,0.146,0.090,south,7.3,No
2019/10/03,18:20,0.191,0.167,0.288,0.269,0.269,0.146,0.089,south,7.1,No
2019/10/03,18:30,0.192,0.167,0.286,0.271,0.266,0.146,0.089,south,6.9,No
2019/10/03,18:40,0.190,0.167,0.285,0.273,0.267,0.146,0.089,south,7.9,No
2019/10/03,18:50,0.191,0.166,0.289,0.269,0.268,0.145,0.090,south-southeast,7.3,No
2019/10/03,19:00,0.191,0.167,0.286,0.271,0.268,0.146,0.089,south,7.7,No
2019/10/03,19:10,0.190,0.165,0.286,0.272,0.267,0.145,0.090,south,6.6,No
2019/10/03,19:20,0.191,0.166,0.287,0.270,0.268,0.146,0.089,south,7.3,No
2019/10/03,19:30,0.191,0.166,0.286,0.271,0.267,0.146,0.088,south,7.4,Yes
2019/10/03,19:40,0.189,0.166,0.288,0.271,0.266,0.145,0.091,south,6.6,Yes
2019/10/03,19:50,0.192,0.167,0.288,0.269,0.269,0.145,0.090,south,6.3,No
2019/10/03,20:00,0.191,0.166,0.286,0.272,0.265,0.147,0.088,south,7.0,No
2019/10/03,20:10,0.191,0.167,0.288,0.270,0.267,0.146,0.090,south,7.4,No
2019/10/03,20:20,0.191,0.167,0.287,0.268,0.268,0.146,0.089,south-southeast,6.4,No
2019/10/03,20:30,0.190,0.166,0.286,0.273,0.265,0.147,0.089,south,5.4,No
2019/10/03,20:40,0.189,0.168,0.288,0.269,0.268,0.146,0.090,south,5.4,No
2019/10/03,20:50,0.192,0.167,0.287,0.269,0.269,0.145,0.089,south,6.5,Yes
2019/10/03,21:00,0.191,0.167,0.286,0.272,0.266,0.147,0.090,south,5.8,Yes
2019/10/03,21:10,0.190,0.166,0.290,0.270,0.270,0.145,0.090,south,6.4,Yes
2019/10/03,21:20,0.192,0.166,0.286,0.271,0.268,0.145,0.089,south,7.1,Yes
2019/10/03,21:30,0.190,0.167,0.288,0.271,0.266,0.147,0.090,south,8.1,No
2019/10/03,21:40,0.190,0.167,0.288,0.269,0.268,0.146,0.091,south,8.1,No
2019/10/03,21:50,0.192,0.165,0.286,0.271,0.268,0.146,0.090,south,8.7,No
2019/10/03,22:00,0.191,0.169,0.288,0.271,0.264,0.147,0.090,south,9.8,Yes
2019/10/03,22:10,0.190,0.167,0.288,0.270,0.269,0.147,0.090,south,9.5,Yes
2019/10/03,22:20,0.192,0.166,0.286,0.271,0.268,0.145,0.089,south,8.8,Yes
2019/10/03,22:30,0.190,0.167,0.288,0.271,0.266,0.146,0.090,south,6.9,No
2019/10/03,22:40,0.191,0.166,0.287,0.269,0.268,0.146,0.090,south,6.7,Yes
2019/10/03,22:50,0.192,0.168,0.288,0.272,0.266,0.145,0.089,south,7.5,Yes
2019/10/03,23:00,0.190,0.167,0.289,0.271,0.266,0.147,0.090,south,7.4,Yes
2019/10/03,23:10,0.191,0.166,0.285,0.270,0.269,0.147,0.090,south,8.2,No
2019/10/03,23:20,0.192,0.168,0.288,0.272,0.266,0.146,0.089,south,9.3,Yes
2019/10/03,23:30,0.189,0.166,0.287,0.269,0.267,0.147,0.090,south,10.1,Yes
2019/10/03,23:40,0.190,0.166,0.285,0.270,0.268,0.146,0.090,south,10.9,Yes
2019/10/03,23:50,0.192,0.167,0.288,0.272,0.265,0.146,0.089,south,11.1,No
